Regional Weather Roundup
Issued by NWS

Home | Current Version | Previous Version | Text Only | Print | Product List | Glossary Off
Versions: 1 2 3 4 5 6 7 8 9 10 11 12 13 14 15 16 17 18 19 20 21 22 23 24 25 26 27 28 29 30 31 32 33 34 35 36 37 38 39 40 41 42 43 44 45 46 47 48 49 50

000
ASUS45 KBOI 091910
RWRID

IDAHO REGIONAL WEATHER ROUNDUP
NATIONAL WEATHER SERVICE BOISE ID
1200 PM MST TUE FEB 09 2016

NOTE: "FAIR" INDICATES FEW OR NO CLOUDS BELOW 12000 FEET
WITH NO SIGNIFICANT WEATHER AND/OR OBSTRUCTIONS TO VISIBILITY

IDZ012-014-092000-
SOUTHWEST IDAHO


CITY           SKY/WX    TMP DP  RH WIND       PRES   REMARKS
BOISE          CLOUDY    36  28  75 CALM      30.59F
CALDWELL       CLOUDY    34  28  79 E9        30.62  WCI  27
MOUNTAIN HOME  MOSUNNY   32  28  86 SE13      30.59S WCI  22
$$

IDZ016-017-092000-
SOUTHCENTRAL IDAHO


CITY           SKY/WX    TMP DP  RH WIND       PRES   REMARKS
BURLEY         CLOUDY    29  26  89 E12       30.54F WCI  19
JEROME         SUNNY     27  25  92 E10       30.56S WCI  17
TWIN FALLS     CLOUDY    31  29  92 E8        30.54F FOG     WCI  23
$$

IDZ019>023-092000-
SOUTHEAST IDAHO


CITY           SKY/WX    TMP DP  RH WIND       PRES   REMARKS
IDAHO FALLS    CLOUDY    26  23  88 N10       30.59F FOG     WCI  16
POCATELLO      CLOUDY    26  23  88 NE7       30.59F WCI  18
REXBURG        CLOUDY    24  17  74 NE5       30.57F WCI  18
$$

IDZ006-010-011-018-031-032-092000-
CENTRAL IDAHO MOUNTAINS


CITY           SKY/WX    TMP DP  RH WIND       PRES   REMARKS
MCCALL         SUNNY     25  24  96 S3        30.48F
HAILEY         SUNNY     36  21  55 CALM      30.55F
STANLEY          N/A     23  17  78 CALM      30.57F
SALMON         CLOUDY    18  16  93 CALM      30.61F
CHALLIS        SUNNY     19  13  77 CALM      30.57F
$$

IDZ002-004-006-007-026-092000-
NORTHERN IDAHO


CITY           SKY/WX    TMP DP  RH WIND       PRES   REMARKS
LEWISTON       SUNNY     50  36  58 E12       30.39F
LOWELL           N/A     44  35  70 N6        30.47F
COEUR D`ALENE  SUNNY     39  34  81 NE14      30.39F WCI  31
MULLAN PASS    SUNNY     44  31  60 VRB6      30.41F
$$



USA.gov is the U.S. government's official web portal to all federal, state and local government web resources and services.